When you browse on this site, cookies collect data to enhance your experience and personalize the content and advertising you see.
Visit our Privacy Policy to learn more. By continuing to use the site, you agree to this use of cookies and data.
  • In Österreich
  • Länderverzeichnis
  • Für 7 Tage
  • Wassertemperatur
  • Wetterkarte
  • News
  • Widgets
  • user-avatar
    Anmelden

    Stündliche Wetter Lyubozherde

    Heute, 15 Dezember, Sonntag

    Zeit Temperatur Niederschläge Wind Luftdruck Luftfeuchtigkeit
    00:00 +2°C° 0.4 mm 5 m/S 738 mmHg 91%
    01:00 +2°C° 0.4 mm 5 m/S 738 mmHg 93%
    02:00 +3°C° 0 mm 4 m/S 737 mmHg 92%
    03:00 +2°C° 0.1 mm 5 m/S 738 mmHg 89%
    04:00 +2°C° 0.1 mm 5 m/S 738 mmHg 85%
    05:00 +2°C° 0.1 mm 6 m/S 738 mmHg 82%
    06:00 +2°C° 0 mm 6 m/S 739 mmHg 82%
    07:00 +2°C° 0 mm 5 m/S 739 mmHg 82%
    08:00 +1°C° 0 mm 5 m/S 740 mmHg 83%
    09:00 +1°C° 0 mm 5 m/S 740 mmHg 83%
    10:00 +2°C° 0 mm 5 m/S 741 mmHg 83%
    11:00 +2°C° 0 mm 5 m/S 741 mmHg 83%
    12:00 +2°C° 0 mm 5 m/S 742 mmHg 84%
    13:00 +3°C° 0 mm 4 m/S 742 mmHg 85%
    14:00 +3°C° 0 mm 4 m/S 743 mmHg 87%
    15:00 +3°C° 0 mm 4 m/S 743 mmHg 85%
    16:00 +3°C° 0 mm 4 m/S 743 mmHg 83%
    17:00 +3°C° 0 mm 4 m/S 743 mmHg 81%
    18:00 +3°C° 0 mm 4 m/S 743 mmHg 82%
    19:00 +1°C° 0 mm 4 m/S 744 mmHg 82%
    20:00 +1°C° 0 mm 4 m/S 744 mmHg 83%
    21:00 +3°C° 0.2 mm 4 m/S 744 mmHg 83%
    22:00 +2°C° 0.2 mm 5 m/S 744 mmHg 84%
    23:00 +3°C° 0.2 mm 5 m/S 744 mmHg 84%

    Morgen, 16 Dezember, Montag

    Zeit Temperatur Niederschläge Wind Luftdruck Luftfeuchtigkeit
    00:00 +3°C° 0 mm 5 m/S 744 mmHg 84%
    01:00 +3°C° 0 mm 5 m/S 744 mmHg 84%
    02:00 +3°C° 0 mm 5 m/S 744 mmHg 84%
    03:00 +4°C° 0 mm 4 m/S 745 mmHg 86%
    04:00 +4°C° 0 mm 4 m/S 745 mmHg 88%
    05:00 +4°C° 0 mm 4 m/S 746 mmHg 90%
    06:00 +3°C° 0 mm 4 m/S 746 mmHg 90%
    07:00 +3°C° 0 mm 4 m/S 746 mmHg 90%
    08:00 +3°C° 0 mm 4 m/S 747 mmHg 90%
    09:00 +4°C° 0 mm 4 m/S 747 mmHg 87%
    10:00 +3°C° 0 mm 5 m/S 748 mmHg 83%
    11:00 +5°C° 0 mm 5 m/S 748 mmHg 80%
    12:00 +5°C° 0 mm 5 m/S 749 mmHg 77%
    13:00 +5°C° 0 mm 4 m/S 749 mmHg 74%
    14:00 +6°C° 0 mm 4 m/S 749 mmHg 71%
    15:00 +5°C° 0 mm 4 m/S 749 mmHg 76%
    16:00 +4°C° 0 mm 3 m/S 750 mmHg 82%
    17:00 +3°C° 0 mm 3 m/S 750 mmHg 87%
    18:00 +3°C° 0 mm 3 m/S 750 mmHg 88%
    19:00 +4°C° 0 mm 2 m/S 750 mmHg 90%
    20:00 +3°C° 0 mm 2 m/S 750 mmHg 91%
    21:00 +3°C° 0 mm 2 m/S 750 mmHg 91%
    22:00 +4°C° 0 mm 2 m/S 750 mmHg 91%
    23:00 +4°C° 0 mm 2 m/S 750 mmHg 91%

    übermorgen, 17 Dezember, Dienstag

    Zeit Temperatur Niederschläge Wind Luftdruck Luftfeuchtigkeit
    00:00 +4°C° 0 mm 2 m/S 750 mmHg 91%
    01:00 +3°C° 0 mm 3 m/S 750 mmHg 90%
    02:00 +3°C° 0 mm 3 m/S 750 mmHg 90%
    03:00 +3°C° 0 mm 3 m/S 749 mmHg 91%
    04:00 +3°C° 0 mm 3 m/S 749 mmHg 91%
    05:00 +3°C° 0 mm 3 m/S 749 mmHg 92%
    06:00 +3°C° 0 mm 3 m/S 749 mmHg 91%
    07:00 +3°C° 0 mm 3 m/S 748 mmHg 91%
    08:00 +3°C° 0 mm 3 m/S 748 mmHg 90%
    09:00 +4°C° 0 mm 3 m/S 748 mmHg 87%
    10:00 +5°C° 0 mm 3 m/S 749 mmHg 84%
    11:00 +5°C° 0 mm 4 m/S 749 mmHg 81%
    12:00 +7°C° 0 mm 3 m/S 748 mmHg 80%
    13:00 +7°C° 0 mm 3 m/S 748 mmHg 79%
    14:00 +7°C° 0 mm 2 m/S 748 mmHg 78%
    15:00 +7°C° 0 mm 2 m/S 748 mmHg 81%
    16:00 +6°C° 0 mm 2 m/S 748 mmHg 84%
    17:00 +5°C° 0 mm 2 m/S 748 mmHg 88%
    18:00 +5°C° 0 mm 2 m/S 748 mmHg 89%
    19:00 +5°C° 0 mm 2 m/S 748 mmHg 89%
    20:00 +5°C° 0 mm 2 m/S 748 mmHg 90%
    21:00 +5°C° 0 mm 2 m/S 748 mmHg 90%
    22:00 +5°C° 0 mm 2 m/S 748 mmHg 90%
    23:00 +5°C° 0 mm 2 m/S 748 mmHg 90%

    18 Dezember, Mittwoch

    Zeit Temperatur Niederschläge Wind Luftdruck Luftfeuchtigkeit
    00:00 +5°C° 0 mm 2 m/S 748 mmHg 90%
    01:00 +5°C° 0 mm 2 m/S 748 mmHg 89%
    02:00 +5°C° 0 mm 2 m/S 748 mmHg 89%
    03:00 +5°C° 0 mm 2 m/S 748 mmHg 89%
    04:00 +5°C° 0 mm 2 m/S 748 mmHg 89%
    05:00 +4°C° 0 mm 2 m/S 748 mmHg 89%
    06:00 +4°C° 0 mm 2 m/S 748 mmHg 90%
    07:00 +4°C° 0 mm 2 m/S 747 mmHg 91%
    08:00 +3°C° 0 mm 2 m/S 747 mmHg 91%
    09:00 +4°C° 0 mm 2 m/S 747 mmHg 91%
    10:00 +4°C° 0 mm 2 m/S 748 mmHg 90%
    11:00 +4°C° 0 mm 3 m/S 748 mmHg 89%
    12:00 +5°C° 0 mm 3 m/S 748 mmHg 88%
    13:00 +6°C° 0 mm 2 m/S 748 mmHg 86%
    14:00 +7°C° 0 mm 2 m/S 747 mmHg 84%
    15:00 +6°C° 0 mm 2 m/S 747 mmHg 86%
    16:00 +5°C° 0 mm 2 m/S 748 mmHg 88%
    17:00 +5°C° 0 mm 2 m/S 748 mmHg 90%
    18:00 +5°C° 0 mm 2 m/S 748 mmHg 90%
    19:00 +5°C° 0 mm 2 m/S 747 mmHg 90%
    20:00 +5°C° 0 mm 2 m/S 747 mmHg 89%
    21:00 +5°C° 0 mm 2 m/S 747 mmHg 90%
    22:00 +4°C° 0 mm 3 m/S 748 mmHg 90%
    23:00 +4°C° 0 mm 3 m/S 748 mmHg 90%

    19 Dezember, Donnerstag

    Zeit Temperatur Niederschläge Wind Luftdruck Luftfeuchtigkeit
    00:00 +3°C° 0 mm 3 m/S 747 mmHg 90%
    01:00 +3°C° 0 mm 3 m/S 747 mmHg 91%
    02:00 +3°C° 0 mm 3 m/S 747 mmHg 91%
    03:00 +3°C° 0 mm 3 m/S 747 mmHg 92%
    04:00 +3°C° 0 mm 3 m/S 747 mmHg 92%
    05:00 +3°C° 0 mm 3 m/S 747 mmHg 92%
    06:00 +3°C° 0 mm 3 m/S 747 mmHg 92%
    07:00 +3°C° 0 mm 3 m/S 747 mmHg 92%
    08:00 +3°C° 0 mm 3 m/S 746 mmHg 92%
    09:00 +4°C° 0 mm 3 m/S 746 mmHg 90%
    10:00 +4°C° 0 mm 3 m/S 747 mmHg 88%
    11:00 +5°C° 0 mm 3 m/S 747 mmHg 85%
    12:00 +7°C° 0 mm 3 m/S 746 mmHg 84%
    13:00 +7°C° 0 mm 3 m/S 746 mmHg 83%
    14:00 +7°C° 0 mm 2 m/S 745 mmHg 82%
    15:00 +7°C° 0 mm 2 m/S 745 mmHg 84%
    16:00 +7°C° 0 mm 2 m/S 745 mmHg 85%
    17:00 +7°C° 0 mm 2 m/S 745 mmHg 87%
    18:00 +6°C° 0 mm 2 m/S 745 mmHg 87%
    19:00 +7°C° 0 mm 1 m/S 745 mmHg 87%
    20:00 +7°C° 0 mm 1 m/S 745 mmHg 88%
    21:00 +7°C° 0 mm 1 m/S 745 mmHg 88%
    22:00 +7°C° 0 mm 1 m/S 745 mmHg 89%
    23:00 +7°C° 0 mm 1 m/S 745 mmHg 89%

    20 Dezember, Freitag

    Zeit Temperatur Niederschläge Wind Luftdruck Luftfeuchtigkeit
    00:00 +7°C° 0 mm 1 m/S 745 mmHg 90%
    01:00 +5°C° 0 mm 2 m/S 745 mmHg 91%
    02:00 +5°C° 0 mm 2 m/S 745 mmHg 93%
    03:00 +5°C° 0 mm 2 m/S 744 mmHg 93%
    04:00 +4°C° 0 mm 2 m/S 744 mmHg 93%
    05:00 +4°C° 0 mm 2 m/S 744 mmHg 94%
    06:00 +4°C° 0 mm 2 m/S 744 mmHg 94%
    07:00 +4°C° 0 mm 2 m/S 744 mmHg 94%
    08:00 +4°C° 0 mm 2 m/S 744 mmHg 95%
    09:00 +3°C° 0 mm 3 m/S 744 mmHg 94%
    10:00 +4°C° 0 mm 3 m/S 744 mmHg 93%
    11:00 +4°C° 0 mm 3 m/S 745 mmHg 92%
    12:00 +4°C° 0 mm 4 m/S 744 mmHg 91%
    13:00 +4°C° 0 mm 4 m/S 744 mmHg 90%
    14:00 +5°C° 0 mm 4 m/S 743 mmHg 89%
    15:00 +4°C° 0 mm 4 m/S 743 mmHg 90%
    16:00 +4°C° 0 mm 4 m/S 743 mmHg 91%
    17:00 +3°C° 0 mm 5 m/S 743 mmHg 92%
    18:00 +4°C° 0 mm 4 m/S 743 mmHg 92%
    19:00 +4°C° 0 mm 4 m/S 742 mmHg 92%
    20:00 +4°C° 0 mm 4 m/S 742 mmHg 92%
    21:00 +4°C° 0 mm 4 m/S 742 mmHg 92%
    22:00 +3°C° 0 mm 5 m/S 742 mmHg 91%
    23:00 +3°C° 0 mm 5 m/S 742 mmHg 91%
    Mehr zeigen